Worthington, MN

11:35 AM CDT on September 27, 2016 (GMT -0500)
Worthington Municipal

Weather History for KOTG - September, 2014

Change the Weather History Date:

Sunday, September 7, 2014

  Actual Average Record
Temperature  
Mean Temperature 62 °F -  
Max Temperature 71 °F 74 °F 101 °F (1976)
Min Temperature 53 °F 53 °F 37 °F (1986)
Degree Days  
Heating Degree Days 3    
Growing Degree Days 12 (Base 50)    
Moisture  
Dew Point 51 °F    
Average Humidity 68    
Maximum Humidity 82    
Minimum Humidity 50    
Precipitation  
Precipitation 0.00 in - - ()
Sea Level Pressure  
Sea Level Pressure 30.13 in    
Wind  
Wind Speed 9 mph (SSW)    
Max Wind Speed 15 mph    
Max Gust Speed 22 mph    
Visibility 10 miles    
Events      
Averages and records for this station are not official NWS values.
T = Trace of Precipitation, MM = Missing Value Source: NWS Daily Summary

Daily Weather History Graph

Daily Weather History Graph

Search for Another Location

Airport or City:

Trip Planner

Search our weather history database for the weather conditions in past years. The results will help you decide how hot, cold, wet, or windy it might be!

Date:

Astronomy

Sep. 07, 2014 Rise Set
Actual Time 6:52 AM CDT 7:47 PM CDT
Civil Twilight 6:23 AM CDT 8:16 PM CDT
Nautical Twilight 5:48 AM CDT 8:50 PM CDT
Astronomical Twilight 5:12 AM CDT 9:26 PM CDT
Moon 6:48 PM CDT (9/7) 5:04 AM CDT (9/7)
Length of Visible Light 13h 52m
Length of Day
12h 54m
Waxing Gibbous, 97% of the Moon is Illuminated
Sep 7
Waxing Gibbous
Sep 8
Full
Sep 15
Last Quarter
Sep 24
New
Oct 1
First Quarter

Hourly Weather History & Observations

Time (CDT) Temp. Dew Point Humidity Pressure Visibility Wind Dir Wind Speed Gust Speed Precip Events Conditions
12:15 AM 53.6 °F 48.2 °F 82% 30.21 in 10.0 mi SSW 5.8 mph - N/A   Clear
12:35 AM 53.6 °F 48.2 °F 82% 30.21 in 10.0 mi SSW 6.9 mph - N/A   Clear
12:55 AM 53.6 °F 48.2 °F 82% 30.21 in 10.0 mi South 8.1 mph - N/A   Clear
1:15 AM 53.6 °F 48.2 °F 82% 30.21 in 10.0 mi SSW 8.1 mph - N/A   Clear
1:35 AM 53.6 °F 48.2 °F 82% 30.20 in 10.0 mi SSW 8.1 mph - N/A   Clear
1:55 AM 53.6 °F 48.2 °F 82% 30.20 in 10.0 mi SSW 6.9 mph - N/A   Clear
2:35 AM 53.6 °F 48.2 °F 82% 30.20 in 10.0 mi SSW 8.1 mph - N/A   Clear
2:55 AM 53.6 °F 48.2 °F 82% 30.20 in 10.0 mi SSW 8.1 mph - N/A   Clear
3:15 AM 55.4 °F 48.2 °F 77% 30.19 in 10.0 mi SSW 8.1 mph - N/A   Clear
3:35 AM 55.4 °F 48.2 °F 77% 30.19 in 10.0 mi SSW 8.1 mph - N/A   Clear
3:55 AM 55.4 °F 48.2 °F 77% 30.19 in 10.0 mi SSW 8.1 mph - N/A   Clear
4:15 AM 55.4 °F 48.2 °F 77% 30.19 in 10.0 mi SSW 8.1 mph - N/A   Clear
4:35 AM 55.4 °F 48.2 °F 77% 30.19 in 10.0 mi SSW 8.1 mph - N/A   Clear
4:55 AM 53.6 °F 46.4 °F 77% 30.19 in 10.0 mi SSW 8.1 mph - N/A   Clear
5:15 AM 53.6 °F 46.4 °F 77% 30.19 in 10.0 mi SSW 8.1 mph - N/A   Clear
5:35 AM 53.6 °F 46.4 °F 77% 30.19 in 10.0 mi SSW 8.1 mph - N/A   Clear
5:55 AM 53.6 °F 46.4 °F 77% 30.19 in 10.0 mi SSW 8.1 mph - N/A   Clear
6:15 AM 53.6 °F 46.4 °F 77% 30.19 in 10.0 mi SSW 8.1 mph - N/A   Clear
6:35 AM 53.6 °F 46.4 °F 77% 30.19 in 10.0 mi SSW 8.1 mph - N/A   Clear
6:55 AM 53.6 °F 46.4 °F 77% 30.19 in 10.0 mi SSW 10.4 mph - N/A   Clear
7:15 AM 53.6 °F 46.4 °F 77% 30.19 in 10.0 mi SSW 9.2 mph - N/A   Clear
7:35 AM 55.4 °F 46.4 °F 72% 30.18 in 10.0 mi SSW 10.4 mph - N/A   Clear
7:55 AM 55.4 °F 48.2 °F 77% 30.18 in 10.0 mi SSW 8.1 mph - N/A   Clear
8:15 AM 57.2 °F 48.2 °F 72% 30.18 in 10.0 mi SSW 9.2 mph - N/A   Clear
8:35 AM 57.2 °F 48.2 °F 72% 30.17 in 10.0 mi SSW 9.2 mph 17.3 mph N/A   Clear
8:55 AM 60.8 °F 48.2 °F 63% 30.17 in 10.0 mi SSW 9.2 mph - N/A   Clear
9:15 AM 60.8 °F 50.0 °F 68% 30.17 in 10.0 mi SSW 11.5 mph 18.4 mph N/A   Clear
9:35 AM 62.6 °F 50.0 °F 63% 30.17 in 10.0 mi SSW 15.0 mph 18.4 mph N/A   Clear
9:55 AM 62.6 °F 51.8 °F 68% 30.17 in 10.0 mi SSW 13.8 mph 21.9 mph N/A   Clear
10:15 AM 64.4 °F 50.0 °F 59% 30.17 in 10.0 mi SSW 11.5 mph 21.9 mph N/A   Clear
10:35 AM 64.4 °F 51.8 °F 64% 30.17 in 10.0 mi SSW 15.0 mph 19.6 mph N/A   Clear
10:55 AM 66.2 °F 51.8 °F 60% 30.16 in 10.0 mi SSW 12.7 mph 17.3 mph N/A   Clear
11:15 AM 66.2 °F 51.8 °F 60% 30.16 in 10.0 mi South 13.8 mph 17.3 mph N/A   Clear
11:35 AM 68.0 °F 53.6 °F 60% 30.15 in 10.0 mi SSW 12.7 mph 17.3 mph N/A   Clear
11:55 AM 68.0 °F 53.6 °F 60% 30.15 in 10.0 mi SSW 11.5 mph 16.1 mph N/A   Clear
12:15 PM 69.8 °F 53.6 °F 56% 30.14 in 10.0 mi SSW 12.7 mph 19.6 mph N/A   Clear
12:35 PM 69.8 °F 53.6 °F 56% 30.14 in 10.0 mi SSW 11.5 mph 18.4 mph N/A   Clear
12:55 PM 69.8 °F 55.4 °F 60% 30.13 in 10.0 mi SSW 13.8 mph 19.6 mph N/A   Clear
1:15 PM 69.8 °F 53.6 °F 56% 30.12 in 10.0 mi South 13.8 mph 19.6 mph N/A   Clear
1:35 PM 71.6 °F 53.6 °F 53% 30.12 in 10.0 mi SSW 10.4 mph 17.3 mph N/A   Clear
1:55 PM 71.6 °F 55.4 °F 57% 30.11 in 10.0 mi South 10.4 mph 17.3 mph N/A   Clear
2:15 PM 71.6 °F 55.4 °F 57% 30.10 in 10.0 mi South 12.7 mph 17.3 mph N/A   Clear
2:35 PM 71.6 °F 53.6 °F 53% 30.10 in 10.0 mi South 13.8 mph 20.7 mph N/A   Clear
2:55 PM 71.6 °F 53.6 °F 53% 30.09 in 10.0 mi SSW 12.7 mph 18.4 mph N/A   Clear
3:15 PM 71.6 °F 53.6 °F 53% 30.08 in 10.0 mi South 12.7 mph 18.4 mph N/A   Clear
3:35 PM 71.6 °F 55.4 °F 57% 30.07 in 10.0 mi South 13.8 mph - N/A   Partly Cloudy
3:55 PM 71.6 °F 53.6 °F 53% 30.07 in 10.0 mi South 13.8 mph 18.4 mph N/A   Partly Cloudy
4:15 PM 71.6 °F 53.6 °F 53% 30.07 in 10.0 mi South 6.9 mph 16.1 mph N/A   Clear
4:35 PM 71.6 °F 51.8 °F 50% 30.06 in 10.0 mi South 10.4 mph 17.3 mph N/A   Clear
4:55 PM 71.6 °F 53.6 °F 53% 30.06 in 10.0 mi South 8.1 mph 16.1 mph N/A   Clear
5:15 PM 69.8 °F 51.8 °F 53% 30.06 in 10.0 mi South 10.4 mph - N/A   Clear
5:35 PM 69.8 °F 53.6 °F 56% 30.05 in 10.0 mi South 8.1 mph - N/A   Clear
5:55 PM 69.8 °F 53.6 °F 56% 30.05 in 10.0 mi South 6.9 mph 16.1 mph N/A   Clear
6:35 PM 69.8 °F 53.6 °F 56% 30.04 in 10.0 mi South 10.4 mph - N/A   Clear
6:55 PM 69.8 °F 53.6 °F 56% 30.03 in 10.0 mi South 11.5 mph 18.4 mph N/A   Clear
7:15 PM 68.0 °F 55.4 °F 64% 30.03 in 10.0 mi South 11.5 mph - N/A   Clear
7:35 PM 66.2 °F 55.4 °F 68% 30.03 in 10.0 mi South 8.1 mph - N/A   Clear
7:55 PM 64.4 °F 55.4 °F 73% 30.02 in 10.0 mi SSE 6.9 mph - N/A   Clear
8:15 PM 62.6 °F 55.4 °F 77% 30.02 in 10.0 mi SSE 6.9 mph - N/A   Clear
8:35 PM 62.6 °F 55.4 °F 77% 30.02 in 10.0 mi SSE 6.9 mph - N/A   Clear
8:55 PM 62.6 °F 55.4 °F 77% 30.02 in 10.0 mi SSE 8.1 mph - N/A   Clear
9:35 PM 60.8 °F 53.6 °F 77% 30.03 in 10.0 mi South 8.1 mph - N/A   Clear
9:55 PM 60.8 °F 53.6 °F 77% 30.03 in 10.0 mi South 9.2 mph - N/A   Clear
10:35 PM 60.8 °F 51.8 °F 72% 30.03 in 10.0 mi South 9.2 mph - N/A   Clear
11:15 PM 59.0 °F 51.8 °F 77% 30.02 in 10.0 mi South 10.4 mph - N/A   Clear
11:35 PM 59.0 °F 51.8 °F 77% 30.01 in 10.0 mi SSE 10.4 mph - N/A   Clear
11:55 PM 59.0 °F 51.8 °F 77% 30.00 in 10.0 mi SSE 11.5 mph - N/A   Clear